Location: Krasnoyarskiy Pitomnik
(51.1333°N, 71.6167°E)
Time: 09:49:07
(UTC+00:00)

Altair - Pass Details

Date: 13 April 2024
Orbit: 1501 x 1682 km, 47.2° (Epoch: 17 May)

Event Time Altitude Azimuth Distance (km) Brightness Sun altitude
Rises 16:27:03 0° 231° (SW) 4,885 10.2 -19.6°
Reaches altitude 10° 16:30:19 10° 227° (SW) 3,880 9.6 -19.9°
Maximum altitude 16:39:46 53° 155° (SSE) 1,908 7.6 -20.9°
Drops below altitude 10° 16:48:54 10° 82° (E) 3,752 9.2 -21.8°
Sets 16:52:00 0° 78° (ENE) 4,714 9.8 -22.1°
